^^
Saratoga-Weather Station Historical Data
Daily Summary for January 8, 2020 Units:  Metric    English   Both
Daily Weekly Monthly Yearly Custom
  High: Low: Average:
Temperature: 36.7 °C 18.8 °C 27.5 °C
Dew Point: 19.5 °C 15.7 °C 17 °C
Humidity: 83% 29% 56%
Wind Speed: 11.1km/h 0km/h 1.1km/h
Wind Gust: 14.5km/h - -
Wind- - SE
Pressure: 1018.6 hPa 1014.9 hPa -
Precipitation: 0.0 mm    
Historical Graphs
 
 
Tabular Data for January 8, 2020
Time Temperature Dew Point Pressure Wind Wind Speed Wind Gust Humidity Rainfall Rate (Hourly) solar
00:01 23 °C 16.5 °C 1016.9 hPa Calm     67% 0.0 mm 0 W/m2
00:06 22.9 °C 16.4 °C 1016.9 hPa Calm     67% 0.0 mm 0 W/m2
00:12 22.9 °C 16.7 °C 1016.9 hPa Calm     68% 0.0 mm 0 W/m2
00:17 22.8 °C 16.6 °C 1016.9 hPa Calm     68% 0.0 mm 0 W/m2
00:22 22.7 °C 16.5 °C 1016.9 hPa Calm     68% 0.0 mm 0 W/m2
00:27 22.7 °C 16.5 °C 1016.9 hPa Calm     68% 0.0 mm 0 W/m2
00:32 22.6 °C 16.6 °C 1016.9 hPa Calm     69% 0.0 mm 0 W/m2
00:37 22.5 °C 16.5 °C 1016.9 hPa Calm     69% 0.0 mm 0 W/m2
00:42 22.4 °C 16.4 °C 1016.9 hPa Calm     69% 0.0 mm 0 W/m2
00:47 22.3 °C 16.6 °C 1016.9 hPa Calm     70% 0.0 mm 0 W/m2
00:52 22.3 °C 16.6 °C 1016.9 hPa Calm     70% 0.0 mm 0 W/m2
00:57 22.2 °C 16.5 °C 1016.9 hPa Calm     70% 0.0 mm 0 W/m2
01:02 22.1 °C 16.4 °C 1016.9 hPa Calm     70% 0.0 mm 0 W/m2
01:07 22 °C 16.5 °C 1016.9 hPa Calm     71% 0.0 mm 0 W/m2
01:12 21.9 °C 16.4 °C 1016.9 hPa Calm     71% 0.0 mm 0 W/m2
01:17 21.9 °C 16.4 °C 1016.9 hPa Calm     71% 0.0 mm 0 W/m2
01:22 21.8 °C 16.5 °C 1016.9 hPa Calm     72% 0.0 mm 0 W/m2
01:27 21.7 °C 16.2 °C 1016.9 hPa Calm     71% 0.0 mm 0 W/m2
01:32 21.7 °C 16.4 °C 1016.9 hPa Calm     72% 0.0 mm 0 W/m2
01:37 21.6 °C 16.3 °C 1016.9 hPa Calm     72% 0.0 mm 0 W/m2
01:42 21.6 °C 16.6 °C 1016.9 hPa Calm     73% 0.0 mm 0 W/m2
01:47 21.5 °C 16.5 °C 1016.9 hPa Calm     73% 0.0 mm 0 W/m2
01:52 21.4 °C 16.4 °C 1016.9 hPa Calm     73% 0.0 mm 0 W/m2
01:57 21.4 °C 16.4 °C 1016.9 hPa Calm     73% 0.0 mm 0 W/m2
02:02 21.3 °C 16.3 °C 1016.9 hPa Calm     73% 0.0 mm 0 W/m2
02:07 21.3 °C 16.3 °C 1016.9 hPa Calm     73% 0.0 mm 0 W/m2
02:12 21.2 °C 16.4 °C 1016.9 hPa Calm     74% 0.0 mm 0 W/m2
02:17 21.2 °C 16.4 °C 1016.9 hPa Calm     74% 0.0 mm 0 W/m2
02:22 21.1 °C 16.3 °C 1016.9 hPa Calm     74% 0.0 mm 0 W/m2
02:27 21.1 °C 16.3 °C 1016.9 hPa Calm     74% 0.0 mm 0 W/m2
02:32 21 °C 16.4 °C 1016.9 hPa Calm     75% 0.0 mm 0 W/m2
02:37 20.9 °C 16.3 °C 1016.9 hPa Calm     75% 0.0 mm 0 W/m2
02:42 20.8 °C 16.2 °C 1016.9 hPa Calm     75% 0.0 mm 0 W/m2
02:47 20.8 °C 16.2 °C 1016.9 hPa Calm     75% 0.0 mm 0 W/m2
02:52 20.7 °C 16.3 °C 1016.9 hPa Calm     76% 0.0 mm 0 W/m2
02:58 20.7 °C 16.3 °C 1016.9 hPa Calm     76% 0.0 mm 0 W/m2
03:03 20.6 °C 16.2 °C 1016.9 hPa Calm     76% 0.0 mm 0 W/m2
03:08 20.5 °C 16.1 °C 1016.9 hPa Calm     76% 0.0 mm 0 W/m2
03:13 20.4 °C 16 °C 1016.9 hPa Calm     76% 0.0 mm 0 W/m2
03:18 20.3 °C 15.9 °C 1016.9 hPa Calm     76% 0.0 mm 0 W/m2
03:23 20.3 °C 16.1 °C 1016.9 hPa Calm     77% 0.0 mm 0 W/m2
03:28 20.2 °C 16 °C 1016.9 hPa Calm     77% 0.0 mm 0 W/m2
03:33 20.2 °C 16 °C 1016.9 hPa Calm     77% 0.0 mm 0 W/m2
03:38 20.1 °C 15.9 °C 1016.9 hPa Calm     77% 0.0 mm 0 W/m2
03:43 20.1 °C 15.9 °C 1016.9 hPa Calm     77% 0.0 mm 0 W/m2
03:48 19.9 °C 15.9 °C 1016.9 hPa Calm     78% 0.0 mm 0 W/m2
03:53 19.9 °C 15.9 °C 1016.9 hPa Calm     78% 0.0 mm 0 W/m2
03:58 19.8 °C 15.9 °C 1016.9 hPa Calm     78% 0.0 mm 0 W/m2
04:03 19.8 °C 16.1 °C 1016.9 hPa Calm     79% 0.0 mm 0 W/m2
04:08 19.7 °C 16 °C 1016.9 hPa Calm     79% 0.0 mm 0 W/m2
04:13 19.7 °C 16 °C 1016.9 hPa Calm     79% 0.0 mm 0 W/m2
04:18 19.7 °C 16 °C 1016.9 hPa Calm     79% 0.0 mm 0 W/m2
04:23 19.6 °C 15.9 °C 1016.9 hPa Calm     79% 0.0 mm 0 W/m2
04:28 19.6 °C 15.9 °C 1016.9 hPa Calm     79% 0.0 mm 0 W/m2
04:33 19.4 °C 15.9 °C 1016.9 hPa Calm     80% 0.0 mm 0 W/m2
04:38 19.4 °C 15.9 °C 1016.9 hPa Calm     80% 0.0 mm 0 W/m2
04:43 19.4 °C 15.9 °C 1017.3 hPa Calm     80% 0.0 mm 0 W/m2
04:48 19.3 °C 15.8 °C 1016.9 hPa Calm     80% 0.0 mm 0 W/m2
04:53 19.3 °C 16 °C 1017.3 hPa Calm     81% 0.0 mm 0 W/m2
04:58 19.3 °C 16 °C 1017.3 hPa Calm     81% 0.0 mm 0 W/m2
05:03 19.2 °C 16.1 °C 1016.9 hPa Calm     82% 0.0 mm 0 W/m2
05:08 19.2 °C 16.1 °C 1017.3 hPa Calm     82% 0.0 mm 0 W/m2
05:13 19.1 °C 16 °C 1017.3 hPa Calm     82% 0.0 mm 0 W/m2
05:18 19 °C 15.9 °C 1017.3 hPa Calm     82% 0.0 mm 0 W/m2
05:23 19 °C 15.9 °C 1017.3 hPa Calm     82% 0.0 mm 0 W/m2
05:28 19 °C 15.9 °C 1017.3 hPa Calm     82% 0.0 mm 0 W/m2
05:34 19.1 °C 16 °C 1017.3 hPa Calm     82% 0.0 mm 0 W/m2
05:39 19 °C 15.9 °C 1017.3 hPa Calm     82% 0.0 mm 0 W/m2
05:44 18.9 °C 15.8 °C 1017.3 hPa Calm     82% 0.0 mm 0 W/m2
05:49 18.9 °C 15.9 °C 1017.3 hPa Calm     83% 0.0 mm 0 W/m2
05:54 18.9 °C 15.9 °C 1017.3 hPa Calm     83% 0.0 mm 0 W/m2
05:59 18.8 °C 15.9 °C 1017.3 hPa Calm     83% 0.0 mm 0 W/m2
06:04 18.8 °C 15.9 °C 1017.3 hPa Calm     83% 0.0 mm 0 W/m2
06:09 18.9 °C 15.9 °C 1017.3 hPa Calm     83% 0.0 mm 0 W/m2
06:14 18.9 °C 15.9 °C 1017.6 hPa Calm     83% 0.0 mm 0 W/m2
06:19 18.9 °C 15.9 °C 1017.6 hPa Calm     83% 0.0 mm 0 W/m2
06:24 18.9 °C 15.9 °C 1017.6 hPa Calm   1.6 km/h 83% 0.0 mm 5 W/m2
06:29 18.9 °C 15.9 °C 1017.6 hPa Calm     83% 0.0 mm 7 W/m2
06:34 18.9 °C 15.9 °C 1017.6 hPa Calm     83% 0.0 mm 9 W/m2
06:39 18.9 °C 15.9 °C 1017.6 hPa Calm     83% 0.0 mm 11 W/m2
06:44 18.8 °C 15.9 °C 1017.6 hPa Calm     83% 0.0 mm 12 W/m2
06:49 18.8 °C 15.9 °C 1017.6 hPa Calm     83% 0.0 mm 14 W/m2
06:54 18.8 °C 15.9 °C 1018.0 hPa Calm     83% 0.0 mm 16 W/m2
06:59 18.8 °C 15.9 °C 1018.0 hPa Calm     83% 0.0 mm 19 W/m2
07:04 18.8 °C 15.9 °C 1018.0 hPa Calm     83% 0.0 mm 21 W/m2
07:09 18.9 °C 15.9 °C 1018.0 hPa Calm     83% 0.0 mm 23 W/m2
07:14 18.9 °C 15.9 °C 1018.0 hPa Calm     83% 0.0 mm 25 W/m2
07:19 19 °C 16 °C 1018.0 hPa Calm     83% 0.0 mm 26 W/m2
07:24 19.1 °C 16.1 °C 1018.0 hPa Calm     83% 0.0 mm 28 W/m2
07:29 19.3 °C 16.3 °C 1018.0 hPa Calm     83% 0.0 mm 30 W/m2
07:34 19.4 °C 16.2 °C 1018.0 hPa Calm     82% 0.0 mm 32 W/m2
07:39 19.6 °C 16.4 °C 1018.0 hPa Calm     82% 0.0 mm 33 W/m2
07:44 19.7 °C 16.3 °C 1018.3 hPa Calm     81% 0.0 mm 33 W/m2
07:49 19.8 °C 16.4 °C 1018.3 hPa Calm     81% 0.0 mm 35 W/m2
07:54 20 °C 16.6 °C 1018.3 hPa Calm     81% 0.0 mm 37 W/m2
07:59 20.2 °C 16.6 °C 1018.3 hPa Calm     80% 0.0 mm 39 W/m2
08:04 20.4 °C 17 °C 1018.3 hPa Calm     81% 0.0 mm 116 W/m2
08:09 20.7 °C 16.9 °C 1018.3 hPa Calm     79% 0.0 mm 77 W/m2
08:15 21.1 °C 16.9 °C 1018.3 hPa Calm     77% 0.0 mm 44 W/m2
08:20 21.6 °C 17.2 °C 1018.3 hPa Calm     76% 0.0 mm 46 W/m2
08:25 22.1 °C 16.8 °C 1018.3 hPa Calm   1.6 km/h 72% 0.0 mm 47 W/m2
08:30 22.7 °C 17.2 °C 1018.3 hPa SE 3.2 km/h 3.2 km/h 71% 0.0 mm 47 W/m2
08:35 23.3 °C 17.1 °C 1018.3 hPa Calm   1.6 km/h 68% 0.0 mm 47 W/m2
08:40 23.9 °C 17.4 °C 1018.3 hPa East 3.2 km/h 3.2 km/h 67% 0.0 mm 49 W/m2
08:45 24.3 °C 17.5 °C 1018.3 hPa ENE 3.2 km/h 3.2 km/h 66% 0.0 mm 49 W/m2
08:50 24.8 °C 17.5 °C 1018.3 hPa Calm   3.2 km/h 64% 0.0 mm 51 W/m2
08:55 25.1 °C 17.3 °C 1018.3 hPa Calm   1.6 km/h 62% 0.0 mm 54 W/m2
09:00 25.3 °C 17.5 °C 1018.6 hPa Calm   3.2 km/h 62% 0.0 mm 132 W/m2
09:05 25.6 °C 17.5 °C 1018.6 hPa Calm   1.6 km/h 61% 0.0 mm 309 W/m2
09:10 25.6 °C 17.3 °C 1018.6 hPa East 1.4 km/h 3.2 km/h 60% 0.0 mm 339 W/m2
09:15 25.7 °C 17.4 °C 1018.6 hPa ENE 1.4 km/h 6.4 km/h 60% 0.0 mm 355 W/m2
09:20 25.7 °C 17.4 °C 1018.3 hPa Calm   1.6 km/h 60% 0.0 mm 369 W/m2
09:25 25.8 °C 17.4 °C 1018.3 hPa NNE 1.4 km/h 4.8 km/h 60% 0.0 mm 387 W/m2
09:30 25.8 °C 17.4 °C 1018.3 hPa Calm   3.2 km/h 60% 0.0 mm 399 W/m2
09:35 25.9 °C 17.5 °C 1018.3 hPa NE 3.2 km/h 4.8 km/h 60% 0.0 mm 411 W/m2
09:40 25.7 °C 17.4 °C 1018.3 hPa Calm   1.6 km/h 60% 0.0 mm 424 W/m2
09:45 25.8 °C 17.4 °C 1018.3 hPa ENE 1.4 km/h 4.8 km/h 60% 0.0 mm 404 W/m2
09:50 26.2 °C 17.8 °C 1018.3 hPa ESE 3.2 km/h 4.8 km/h 60% 0.0 mm 62 W/m2
09:55 26.4 °C 17.7 °C 1018.3 hPa East 3.2 km/h 4.8 km/h 59% 0.0 mm 417 W/m2
10:00 26.7 °C 18.3 °C 1018.3 hPa East 1.4 km/h 4.8 km/h 60% 0.0 mm 473 W/m2
10:05 27.1 °C 18.1 °C 1018.3 hPa NE 3.2 km/h 4.8 km/h 58% 0.0 mm 492 W/m2
10:10 27.1 °C 17.8 °C 1018.3 hPa NE 4.7 km/h 6.4 km/h 57% 0.0 mm 503 W/m2
10:15 27.2 °C 18.2 °C 1018.3 hPa NE 3.2 km/h 4.8 km/h 58% 0.0 mm 517 W/m2
10:20 27.2 °C 17.9 °C 1018.0 hPa NE 1.4 km/h 4.8 km/h 57% 0.0 mm 527 W/m2
10:25 27.5 °C 18.2 °C 1018.3 hPa NE 1.4 km/h 6.4 km/h 57% 0.0 mm 538 W/m2
10:30 27.9 °C 18.3 °C 1018.3 hPa East 1.4 km/h 4.8 km/h 56% 0.0 mm 554 W/m2
10:35 28.2 °C 18.3 °C 1018.0 hPa ESE 1.4 km/h 6.4 km/h 55% 0.0 mm 564 W/m2
10:41 28.3 °C 18.1 °C 1018.0 hPa ENE 1.4 km/h 6.4 km/h 54% 0.0 mm 577 W/m2
10:46 28.4 °C 18.5 °C 1018.0 hPa Calm   4.8 km/h 55% 0.0 mm 587 W/m2
10:51 28.6 °C 18.7 °C 1018.0 hPa East 3.2 km/h 4.8 km/h 55% 0.0 mm 598 W/m2
10:56 28.8 °C 18.6 °C 1018.0 hPa North 1.4 km/h 4.8 km/h 54% 0.0 mm 610 W/m2
11:01 28.9 °C 18.4 °C 1018.0 hPa Calm   4.8 km/h 53% 0.0 mm 619 W/m2
11:06 29 °C 18.1 °C 1018.0 hPa ENE 1.4 km/h 4.8 km/h 52% 0.0 mm 631 W/m2
11:11 29.2 °C 18.3 °C 1018.0 hPa ENE 3.2 km/h 4.8 km/h 52% 0.0 mm 643 W/m2
11:16 29.5 °C 18.3 °C 1018.0 hPa ENE 4.7 km/h 6.4 km/h 51% 0.0 mm 654 W/m2
11:21 29.6 °C 18.4 °C 1018.0 hPa NNW 1.4 km/h 3.2 km/h 51% 0.0 mm 663 W/m2
11:26 29.6 °C 18.4 °C 1018.0 hPa South 6.4 km/h 6.4 km/h 51% 0.0 mm 673 W/m2
11:31 29.8 °C 18.9 °C 1018.0 hPa ESE 3.2 km/h 3.2 km/h 52% 0.0 mm 680 W/m2
11:36 30.1 °C 18.8 °C 1017.6 hPa WSW 1.4 km/h 3.2 km/h 51% 0.0 mm 691 W/m2
11:41 30.3 °C 18.7 °C 1017.6 hPa Calm   3.2 km/h 50% 0.0 mm 698 W/m2
11:46 30.5 °C 18.6 °C 1017.6 hPa Calm   3.2 km/h 49% 0.0 mm 705 W/m2
11:51 30.7 °C 18.4 °C 1017.6 hPa NE 1.4 km/h 8 km/h 48% 0.0 mm 714 W/m2
11:56 30.9 °C 18.9 °C 1017.6 hPa Calm   1.6 km/h 49% 0.0 mm 722 W/m2
12:01 31.2 °C 18.2 °C 1017.6 hPa NNE 3.2 km/h 8 km/h 46% 0.0 mm 731 W/m2
12:06 31.4 °C 18.7 °C 1017.6 hPa Calm   4.8 km/h 47% 0.0 mm 738 W/m2
12:11 31.7 °C 18.7 °C 1017.3 hPa Calm   8 km/h 46% 0.0 mm 747 W/m2
12:16 31.9 °C 18.8 °C 1017.6 hPa East 11.1 km/h 12.9 km/h 46% 0.0 mm 754 W/m2
12:21 32.2 °C 18.8 °C 1017.6 hPa NE 1.4 km/h 4.8 km/h 45% 0.0 mm 758 W/m2
12:26 32.4 °C 18.9 °C 1017.3 hPa Calm   1.6 km/h 45% 0.0 mm 763 W/m2
12:31 32.6 °C 18.8 °C 1017.3 hPa East 3.2 km/h 4.8 km/h 44% 0.0 mm 770 W/m2
12:36 32.9 °C 19 °C 1017.3 hPa ENE 3.2 km/h 6.4 km/h 44% 0.0 mm 777 W/m2
12:41 33.1 °C 18.8 °C 1017.3 hPa East 6.4 km/h 9.7 km/h 43% 0.0 mm 786 W/m2
12:46 33.2 °C 18.6 °C 1017.3 hPa East 3.2 km/h 3.2 km/h 42% 0.0 mm 784 W/m2
12:51 33.3 °C 18.6 °C 1017.3 hPa NE 3.2 km/h 9.7 km/h 42% 0.0 mm 791 W/m2
12:56 33.4 °C 18.7 °C 1017.3 hPa North 3.2 km/h 4.8 km/h 42% 0.0 mm 795 W/m2
13:01 33.6 °C 18.9 °C 1017.3 hPa NNE 3.2 km/h 6.4 km/h 42% 0.0 mm 798 W/m2
13:06 33.6 °C 18.5 °C 1017.3 hPa East 3.2 km/h 4.8 km/h 41% 0.0 mm 803 W/m2
13:11 33.5 °C 18.8 °C 1017.3 hPa WSW 3.2 km/h 9.7 km/h 42% 0.0 mm 807 W/m2
13:16 33.6 °C 18.5 °C 1017.3 hPa East 6.4 km/h 6.4 km/h 41% 0.0 mm 807 W/m2
13:21 33.8 °C 18.7 °C 1016.9 hPa ENE 4.7 km/h 4.8 km/h 41% 0.0 mm 809 W/m2
13:26 34.1 °C 19 °C 1016.9 hPa SW 1.4 km/h 3.2 km/h 41% 0.0 mm 816 W/m2
13:31 34.1 °C 18.6 °C 1016.9 hPa NNE 1.4 km/h 9.7 km/h 40% 0.0 mm 816 W/m2
13:36 34.2 °C 19.5 °C 1016.9 hPa Calm   4.8 km/h 42% 0.0 mm 814 W/m2
13:41 34.3 °C 18.4 °C 1016.9 hPa Calm   4.8 km/h 39% 0.0 mm 816 W/m2
13:47 34.4 °C 18.8 °C 1016.9 hPa North 4.7 km/h 4.8 km/h 40% 0.0 mm 809 W/m2
13:52 34.4 °C 18.4 °C 1016.9 hPa WSW 1.4 km/h 3.2 km/h 39% 0.0 mm 819 W/m2
13:57 34.5 °C 18.5 °C 1016.9 hPa East 4.7 km/h 9.7 km/h 39% 0.0 mm 838 W/m2
14:02 34.6 °C 18.2 °C 1016.9 hPa NNE 1.4 km/h 3.2 km/h 38% 0.0 mm 821 W/m2
14:07 34.6 °C 18.2 °C 1016.9 hPa ESE 3.2 km/h 3.2 km/h 38% 0.0 mm 810 W/m2
14:12 34.7 °C 18.7 °C 1016.9 hPa ESE 4.7 km/h 11.3 km/h 39% 0.0 mm 816 W/m2
14:17 34.7 °C 18.3 °C 1016.9 hPa ESE 3.2 km/h 6.4 km/h 38% 0.0 mm 812 W/m2
14:22 34.7 °C 17.9 °C 1016.9 hPa West 3.2 km/h 4.8 km/h 37% 0.0 mm 807 W/m2
14:27 34.6 °C 17.3 °C 1016.9 hPa SSW 3.2 km/h 4.8 km/h 36% 0.0 mm 842 W/m2
14:32 34.6 °C 17.3 °C 1016.6 hPa Calm   3.2 km/h 36% 0.0 mm 824 W/m2
14:37 34.7 °C 17.4 °C 1016.6 hPa ESE 3.2 km/h 4.8 km/h 36% 0.0 mm 823 W/m2
14:42 35 °C 17.3 °C 1016.6 hPa ESE 1.4 km/h 11.3 km/h 35% 0.0 mm 812 W/m2
14:47 35.3 °C 17.5 °C 1016.6 hPa ESE 4.7 km/h 6.4 km/h 35% 0.0 mm 802 W/m2
14:52 35.3 °C 17.5 °C 1016.6 hPa North 4.7 km/h 9.7 km/h 35% 0.0 mm 800 W/m2
14:57 35.2 °C 17.4 °C 1016.6 hPa NE 1.4 km/h 9.7 km/h 35% 0.0 mm 798 W/m2
15:03 35.2 °C 17 °C 1016.6 hPa East 1.4 km/h 11.3 km/h 34% 0.0 mm 812 W/m2
15:08 35.2 °C 16.5 °C 1016.6 hPa NNW 1.4 km/h 4.8 km/h 33% 0.0 mm 784 W/m2
15:13 35.3 °C 16.6 °C 1016.6 hPa NE 7.9 km/h 8 km/h 33% 0.0 mm 775 W/m2
15:18 35.4 °C 16.7 °C 1016.3 hPa Calm   4.8 km/h 33% 0.0 mm 768 W/m2
15:23 35.7 °C 16.4 °C 1016.3 hPa East 1.4 km/h 4.8 km/h 32% 0.0 mm 770 W/m2
15:28 35.9 °C 18 °C 1016.3 hPa West 4.7 km/h 6.4 km/h 35% 0.0 mm 768 W/m2
15:33 35.8 °C 16.5 °C 1016.3 hPa Calm   3.2 km/h 32% 0.0 mm 766 W/m2
15:38 35.7 °C 16.9 °C 1016.3 hPa SE 1.4 km/h 4.8 km/h 33% 0.0 mm 708 W/m2
15:43 35.8 °C 16.5 °C 1016.3 hPa SE 4.7 km/h 9.7 km/h 32% 0.0 mm 745 W/m2
15:48 35.8 °C 16.5 °C 1016.3 hPa NE 1.4 km/h 8 km/h 32% 0.0 mm 737 W/m2
15:53 35.8 °C 16.5 °C 1016.3 hPa Calm   3.2 km/h 32% 0.0 mm 731 W/m2
15:58 35.9 °C 17.1 °C 1016.3 hPa SW 1.4 km/h 4.8 km/h 33% 0.0 mm 719 W/m2
16:03 36.2 °C 16.9 °C 1016.3 hPa ENE 3.2 km/h 4.8 km/h 32% 0.0 mm 717 W/m2
16:08 36.3 °C 17 °C 1016.3 hPa East 1.4 km/h 3.2 km/h 32% 0.0 mm 707 W/m2
16:13 36.2 °C 16.4 °C 1016.3 hPa West 6.4 km/h 9.7 km/h 31% 0.0 mm 703 W/m2
16:18 35.7 °C 16.4 °C 1015.9 hPa WNW 3.2 km/h 4.8 km/h 32% 0.0 mm 689 W/m2
16:23 35.7 °C 16.4 °C 1015.9 hPa ESE 3.2 km/h 3.2 km/h 32% 0.0 mm 684 W/m2
16:28 36.1 °C 16.8 °C 1015.9 hPa Calm   4.8 km/h 32% 0.0 mm 671 W/m2
16:33 36.3 °C 17.5 °C 1015.9 hPa East 4.7 km/h 4.8 km/h 33% 0.0 mm 666 W/m2
16:38 36.4 °C 16.6 °C 1015.9 hPa ENE 6.4 km/h 6.4 km/h 31% 0.0 mm 153 W/m2
16:44 36.3 °C 17 °C 1015.9 hPa NNW 1.4 km/h 3.2 km/h 32% 0.0 mm 647 W/m2
16:49 36.3 °C 17 °C 1015.9 hPa ENE 6.4 km/h 8 km/h 32% 0.0 mm 652 W/m2
16:54 36.4 °C 16.6 °C 1015.9 hPa WNW 4.7 km/h 6.4 km/h 31% 0.0 mm 631 W/m2
16:59 36.5 °C 17.1 °C 1015.9 hPa WSW 1.4 km/h 3.2 km/h 32% 0.0 mm 626 W/m2
17:04 36.7 °C 16.8 °C 1015.9 hPa Calm   3.2 km/h 31% 0.0 mm 613 W/m2
17:09 36.6 °C 16.7 °C 1015.9 hPa NE 1.4 km/h 3.2 km/h 31% 0.0 mm 585 W/m2
17:14 36.7 °C 16.8 °C 1015.6 hPa East 1.4 km/h 4.8 km/h 31% 0.0 mm 568 W/m2
17:19 36.6 °C 15.7 °C 1015.6 hPa Calm   3.2 km/h 29% 0.0 mm 564 W/m2
17:24 36.7 °C 16.3 °C 1015.6 hPa ESE 1.4 km/h 4.8 km/h 30% 0.0 mm 554 W/m2
17:29 36.6 °C 16.2 °C 1015.6 hPa NW 1.4 km/h 3.2 km/h 30% 0.0 mm 529 W/m2
17:35 36.6 °C 16.7 °C 1015.6 hPa NNW 3.2 km/h 6.4 km/h 31% 0.0 mm 529 W/m2
17:40 36.6 °C 17.2 °C 1015.2 hPa WNW 6.4 km/h 8 km/h 32% 0.0 mm 512 W/m2
17:45 36.2 °C 16.4 °C 1015.2 hPa WSW 1.4 km/h 6.4 km/h 31% 0.0 mm 178 W/m2
17:50 36.1 °C 15.8 °C 1015.2 hPa West 4.7 km/h 6.4 km/h 30% 0.0 mm 503 W/m2
17:55 36 °C 16.2 °C 1015.2 hPa Calm   1.6 km/h 31% 0.0 mm 489 W/m2
18:00 36.2 °C 16.4 °C 1015.2 hPa WNW 4.7 km/h 4.8 km/h 31% 0.0 mm 466 W/m2
18:05 36.3 °C 16.5 °C 1015.2 hPa Calm   1.6 km/h 31% 0.0 mm 454 W/m2
18:10 36.5 °C 16.6 °C 1015.2 hPa ENE 3.2 km/h 3.2 km/h 31% 0.0 mm 459 W/m2
18:15 36.7 °C 16.8 °C 1015.2 hPa NNE 1.4 km/h 14.5 km/h 31% 0.0 mm 450 W/m2
18:20 36.6 °C 16.7 °C 1015.2 hPa Calm   3.2 km/h 31% 0.0 mm 436 W/m2
18:25 36.7 °C 16.8 °C 1015.2 hPa NE 3.2 km/h 11.3 km/h 31% 0.0 mm 413 W/m2
18:30 36.7 °C 17.3 °C 1015.2 hPa ENE 3.2 km/h 6.4 km/h 32% 0.0 mm 392 W/m2
18:35 36.6 °C 17.2 °C 1015.2 hPa NE 4.7 km/h 14.5 km/h 32% 0.0 mm 378 W/m2
18:40 36.4 °C 16.6 °C 1015.2 hPa ESE 1.4 km/h 6.4 km/h 31% 0.0 mm 353 W/m2
18:45 36.4 °C 17.1 °C 1015.2 hPa East 3.2 km/h 6.4 km/h 32% 0.0 mm 322 W/m2
18:50 36.3 °C 17.5 °C 1015.2 hPa Calm   4.8 km/h 33% 0.0 mm 297 W/m2
18:55 36.2 °C 16.9 °C 1015.2 hPa East 3.2 km/h 6.4 km/h 32% 0.0 mm 269 W/m2
19:00 36.2 °C 16.9 °C 1015.2 hPa Calm   1.6 km/h 32% 0.0 mm 244 W/m2
19:05 36.2 °C 16.9 °C 1015.2 hPa ENE 3.2 km/h 6.4 km/h 32% 0.0 mm 223 W/m2
19:10 35.9 °C 16.6 °C 1014.9 hPa East 1.4 km/h 4.8 km/h 32% 0.0 mm 199 W/m2
19:15 35.8 °C 17 °C 1015.2 hPa SSE 3.2 km/h 4.8 km/h 33% 0.0 mm 183 W/m2
19:20 35.7 °C 17.9 °C 1015.2 hPa Calm   1.6 km/h 35% 0.0 mm 163 W/m2
19:25 35.6 °C 18.2 °C 1015.2 hPa Calm   4.8 km/h 36% 0.0 mm 148 W/m2
19:30 35.4 °C 18.5 °C 1014.9 hPa Calm   1.6 km/h 37% 0.0 mm 135 W/m2
19:35 35 °C 18.1 °C 1014.9 hPa Calm     37% 0.0 mm 132 W/m2
19:40 34.7 °C 18.3 °C 1014.9 hPa Calm     38% 0.0 mm 132 W/m2
19:45 34.4 °C 18.4 °C 1014.9 hPa Calm   1.6 km/h 39% 0.0 mm 128 W/m2
19:50 34.2 °C 17.9 °C 1014.9 hPa ESE 1.4 km/h 1.6 km/h 38% 0.0 mm 120 W/m2
19:55 33.8 °C 17.9 °C 1014.9 hPa ESE 1.4 km/h 3.2 km/h 39% 0.0 mm 104 W/m2
20:00 33.5 °C 17.6 °C 1014.9 hPa Calm   1.6 km/h 39% 0.0 mm 90 W/m2
20:05 33.2 °C 17.8 °C 1014.9 hPa ESE 1.4 km/h 3.2 km/h 40% 0.0 mm 77 W/m2
20:10 32.9 °C 17.9 °C 1014.9 hPa ESE 1.4 km/h 3.2 km/h 41% 0.0 mm 58 W/m2
20:15 32.6 °C 17.6 °C 1014.9 hPa Calm   1.6 km/h 41% 0.0 mm 46 W/m2
20:21 32.3 °C 17.7 °C 1014.9 hPa ESE 1.4 km/h 1.6 km/h 42% 0.0 mm 28 W/m2
20:26 31.9 °C 17.8 °C 1014.9 hPa ESE 1.4 km/h 3.2 km/h 43% 0.0 mm 25 W/m2
20:31 31.7 °C 17.9 °C 1014.9 hPa ESE 1.4 km/h 1.6 km/h 44% 0.0 mm 23 W/m2
20:36 31.4 °C 17.7 °C 1014.9 hPa ESE 1.4 km/h 1.6 km/h 44% 0.0 mm 19 W/m2
20:41 31.1 °C 17.4 °C 1014.9 hPa ESE 1.4 km/h 1.6 km/h 44% 0.0 mm 14 W/m2
20:46 30.8 °C 17.5 °C 1014.9 hPa ESE 1.4 km/h 3.2 km/h 45% 0.0 mm 12 W/m2
20:51 30.5 °C 17.2 °C 1014.9 hPa Calm   1.6 km/h 45% 0.0 mm 9 W/m2
20:56 30.2 °C 17.3 °C 1015.2 hPa ESE 1.4 km/h 3.2 km/h 46% 0.0 mm 5 W/m2
21:01 29.9 °C 17 °C 1015.2 hPa Calm     46% 0.0 mm 0 W/m2
21:06 29.7 °C 17.2 °C 1015.2 hPa Calm   1.6 km/h 47% 0.0 mm 0 W/m2
21:11 29.4 °C 16.9 °C 1015.2 hPa Calm   1.6 km/h 47% 0.0 mm 0 W/m2
21:16 29.1 °C 17 °C 1015.2 hPa Calm   1.6 km/h 48% 0.0 mm 0 W/m2
21:21 28.8 °C 17 °C 1015.2 hPa Calm     49% 0.0 mm 0 W/m2
21:26 28.6 °C 17.2 °C 1015.2 hPa Calm     50% 0.0 mm 0 W/m2
21:31 28.3 °C 16.9 °C 1015.2 hPa Calm     50% 0.0 mm 0 W/m2
21:36 28.1 °C 16.7 °C 1015.6 hPa Calm     50% 0.0 mm 0 W/m2
21:41 27.8 °C 16.4 °C 1015.6 hPa Calm     50% 0.0 mm 0 W/m2
21:46 27.6 °C 16.2 °C 1015.6 hPa Calm     50% 0.0 mm 0 W/m2
21:51 27.4 °C 16.4 °C 1015.6 hPa Calm     51% 0.0 mm 0 W/m2
21:56 27.2 °C 16.5 °C 1015.6 hPa Calm     52% 0.0 mm 0 W/m2
22:01 27.1 °C 16.4 °C 1015.6 hPa Calm     52% 0.0 mm 0 W/m2
22:06 26.9 °C 16.2 °C 1015.6 hPa Calm     52% 0.0 mm 0 W/m2
22:11 26.8 °C 16.1 °C 1015.6 hPa Calm   3.2 km/h 52% 0.0 mm 0 W/m2
22:16 26.6 °C 16.2 °C 1015.6 hPa Calm     53% 0.0 mm 0 W/m2
22:21 26.6 °C 16.2 °C 1015.6 hPa SE 1.4 km/h 3.2 km/h 53% 0.0 mm 0 W/m2
22:26 26.4 °C 16 °C 1015.6 hPa Calm   1.6 km/h 53% 0.0 mm 0 W/m2
22:31 26.3 °C 16.2 °C 1015.6 hPa Calm   1.6 km/h 54% 0.0 mm 0 W/m2
22:36 26.3 °C 16.2 °C 1015.6 hPa Calm     54% 0.0 mm 0 W/m2
22:41 26.2 °C 16.4 °C 1015.6 hPa Calm   1.6 km/h 55% 0.0 mm 0 W/m2
22:46 26 °C 16.3 °C 1015.6 hPa Calm   1.6 km/h 55% 0.0 mm 0 W/m2
22:51 25.8 °C 16.1 °C 1015.6 hPa Calm     55% 0.0 mm 0 W/m2
22:56 25.7 °C 16 °C 1015.6 hPa Calm   1.6 km/h 55% 0.0 mm 0 W/m2
23:01 25.6 °C 16.2 °C 1015.6 hPa Calm     56% 0.0 mm 0 W/m2
23:06 25.4 °C 16.3 °C 1015.6 hPa Calm   1.6 km/h 57% 0.0 mm 0 W/m2
23:11 25.2 °C 16.1 °C 1015.6 hPa Calm     57% 0.0 mm 0 W/m2
23:16 25.1 °C 16.3 °C 1015.6 hPa Calm     58% 0.0 mm 0 W/m2
23:21 24.9 °C 16.3 °C 1015.6 hPa Calm     59% 0.0 mm 0 W/m2
23:26 24.8 °C 16.2 °C 1015.6 hPa Calm     59% 0.0 mm 0 W/m2
23:32 24.6 °C 16.1 °C 1015.6 hPa Calm     59% 0.0 mm 0 W/m2
23:37 24.5 °C 16.2 °C 1015.6 hPa Calm     60% 0.0 mm 0 W/m2
23:42 24.3 °C 16 °C 1015.6 hPa Calm     60% 0.0 mm 0 W/m2
23:47 24.3 °C 16.3 °C 1015.6 hPa Calm     61% 0.0 mm 0 W/m2
23:52 24.1 °C 16.1 °C 1015.6 hPa Calm     61% 0.0 mm 0 W/m2
23:57 24 °C 16 °C 1015.6 hPa Calm     61% 0.0 mm 0 W/m2
Juneau County Weather
Compliments of Weather Underground - 4 mb